Location: Unspecified
(17.6330°N, 0.0000°E)
Time: 04:16:22
(UTC+00:00)

S-56A Canister/Altair - Pass Details

Date: 04 July 2019
Orbit: 632 x 2500 km, 38.9° (Epoch: 17 July)

Event Time Altitude Azimuth Distance (km) Brightness Sun altitude
Rises 17:20:14 0° 311° (NW) 4,971 13.0 16.6°
Reaches altitude 10° 17:24:21 10° 319° (NW) 3,650 12.2 15.7°
Maximum altitude 17:32:16 36° 23° (NNE) 1,685 9.4 13.9°
Drops below altitude 10° 17:37:46 10° 89° (E) 2,527 9.7 12.7°
Sets 17:40:07 0° 99° (E) 3,293 10.1 12.2°
